TimeMST,TemperatureF,Dew PointF,Humidity,Sea Level PressureIn,VisibilityMPH,Wind Direction,Wind SpeedMPH,Gust SpeedMPH,PrecipitationIn,Events,Conditions,WindDirDegrees,DateUTC
12:53 AM,60.1,28.0,30,29.96,10.0,SSE,5.8,-,N/A,,Clear,150,2012-10-31 07:53:00
1:53 AM,57.9,28.9,33,29.96,10.0,SSE,4.6,-,N/A,,Clear,150,2012-10-31 08:53:00
2:53 AM,57.9,28.0,32,29.96,10.0,SE,6.9,-,N/A,,Clear,140,2012-10-31 09:53:00
3:53 AM,55.9,28.0,34,29.96,10.0,SE,8.1,-,N/A,,Clear,140,2012-10-31 10:53:00
4:53 AM,55.0,28.9,37,29.96,10.0,SSE,5.8,-,N/A,,Clear,150,2012-10-31 11:53:00
5:53 AM,55.0,28.9,37,29.97,10.0,SE,10.4,-,N/A,,Clear,140,2012-10-31 12:53:00
6:53 AM,57.0,28.9,34,29.99,10.0,SE,6.9,-,N/A,,Clear,130,2012-10-31 13:53:00
7:53 AM,60.1,28.9,31,30.01,10.0,SSE,8.1,-,N/A,,Clear,150,2012-10-31 14:53:00
8:53 AM,66.9,30.0,25,30.01,10.0,SSE,9.2,-,N/A,,Clear,150,2012-10-31 15:53:00
9:53 AM,72.0,30.0,21,30.00,10.0,SSE,4.6,-,N/A,,Clear,150,2012-10-31 16:53:00
10:53 AM,78.1,28.9,17,29.98,10.0,East,3.5,-,N/A,,Clear,100,2012-10-31 17:53:00
11:53 AM,82.0,28.0,14,29.95,10.0,Calm,Calm,-,N/A,,Clear,0,2012-10-31 18:53:00
12:53 PM,86.0,21.0,9,29.91,10.0,Variable,3.5,-,N/A,,Clear,0,2012-10-31 19:53:00
1:53 PM,87.1,21.9,9,29.88,10.0,West,3.5,-,N/A,,Clear,260,2012-10-31 20:53:00
2:53 PM,88.0,21.0,9,29.87,10.0,Variable,3.5,-,N/A,,Clear,0,2012-10-31 21:53:00
3:53 PM,87.1,21.0,9,29.86,10.0,NNW,3.5,-,N/A,,Clear,330,2012-10-31 22:53:00
4:53 PM,84.0,25.0,12,29.87,10.0,NNW,8.1,-,N/A,,Clear,340,2012-10-31 23:53:00
5:53 PM,80.1,24.1,13,29.88,10.0,NNW,6.9,-,N/A,,Clear,330,2012-11-01 00:53:00
6:53 PM,77.0,24.1,14,29.91,10.0,NNW,4.6,-,N/A,,Clear,340,2012-11-01 01:53:00
7:53 PM,75.0,24.1,15,29.91,10.0,WNW,6.9,-,N/A,,Clear,300,2012-11-01 02:53:00
8:53 PM,66.9,26.1,21,29.93,10.0,WSW,4.6,-,N/A,,Clear,250,2012-11-01 03:53:00
9:53 PM,64.9,25.0,22,29.94,10.0,SE,4.6,-,N/A,,Clear,130,2012-11-01 04:53:00
10:53 PM,63.0,25.0,24,29.94,10.0,SSE,5.8,-,N/A,,Clear,160,2012-11-01 05:53:00
11:53 PM,60.1,25.0,26,29.95,10.0,SSE,6.9,-,N/A,,Clear,150,2012-11-01 06:53:00